Date,TemperatureHighF,TemperatureAvgF,TemperatureLowF,DewpointHighF,DewpointAvgF,DewpointLowF,HumidityHigh,HumidityAvg,HumidityLow,PressureMaxIn,PressureMinIn,WindSpeedMaxMPH,WindSpeedAvgMPH,GustSpeedMaxMPH,PrecipitationSumIn
2013-3-1,33.6,31.6,30.0,33.2,29.9,27.4,99,93,86,29.69,29.06,5,1,9,0.00
2013-3-2,31.8,28.1,25.3,27.7,23.4,19.5,95,82,64,29.73,29.10,8,1,12,0.01
2013-3-3,37.6,27.5,20.7,25.1,20.4,17.9,96,75,50,29.74,29.11,8,2,14,0.00
2013-3-4,41.4,29.9,17.2,30.1,22.7,16.5,99,76,47,29.74,29.00,7,1,13,0.00
2013-3-5,37.2,34.2,27.7,36.1,32.0,27.5,99,92,81,29.58,28.72,4,0,11,0.07
2013-3-6,33.4,29.4,27.0,30.7,28.6,26.5,99,97,88,29.89,28.83,0,0,0,0.01
2013-3-7,39.4,31.9,26.8,31.7,27.6,23.1,99,85,61,30.00,29.31,4,0,7,0.11
2013-3-8,54.3,35.6,19.9,32.0,25.8,19.4,99,72,35,30.08,29.39,4,0,8,0.00
2013-3-9,54.0,43.8,30.7,36.7,32.0,26.2,84,65,47,29.96,29.00,8,2,17,0.00
2013-3-10,68.4,58.5,49.6,44.8,39.3,35.2,64,50,32,29.58,28.79,12,4,20,0.00
2013-3-11,59.9,45.2,32.9,51.5,43.1,31.7,99,93,58,29.50,28.68,11,4,27,0.07
2013-3-12,45.1,35.2,30.9,33.6,29.1,24.3,99,79,51,29.66,28.92,13,4,22,0.00
2013-3-13,33.3,28.2,24.4,30.1,22.5,19.3,97,79,64,29.94,29.08,12,2,21,0.00
2013-3-14,45.0,31.6,20.8,32.6,23.6,18.0,99,74,39,29.95,29.20,8,2,15,0.00
2013-3-15,50.4,39.6,27.0,41.0,35.0,26.7,99,85,63,29.77,28.80,7,1,11,0.00
2013-3-16,45.0,40.7,33.1,44.7,38.6,30.1,99,92,84,29.67,28.67,8,1,15,0.00
2013-3-17,33.1,33.1,33.1,30.2,30.2,30.2,89,89,89,29.67,29.10,1,1,8,0.00
2013-3-18,33.1,33.1,33.1,30.2,30.2,30.2,89,89,89,29.67,29.10,1,1,8,0.00
2013-3-19,33.1,33.1,33.1,30.2,30.2,30.2,89,89,89,29.67,29.10,1,1,8,0.00
2013-3-20,33.1,33.1,33.1,30.2,30.2,30.2,89,89,89,29.10,29.10,1,1,8,0.00
2013-3-21,33.1,33.1,33.1,30.2,30.2,30.2,89,89,89,29.10,29.10,1,1,8,0.00
2013-3-22,33.1,33.1,33.1,30.2,30.2,30.2,89,89,89,29.10,29.10,1,1,8,0.00
2013-3-23,33.1,33.1,33.1,30.2,30.2,30.2,89,89,89,29.10,29.10,1,1,8,0.00